Total_Precipitation_Accumulation
0.78 0.78 0.79 0.76 0.75 0.74 0.74 0.72 0.73 0.79 0.80 0.83 1.00 1.06 1.14 1.22 1.39 1.65 1.83 1.83 1.76 1.76 1.75 1.83 1.99 2.07 2.30 2.28 2.19 2.08 1.93 1.73 1.58 1.44 1.23 1.04 1.09 1.13 1.15 1.15 1.05 1.00 0.85
0.88 0.87 0.78 0.70 0.67 0.67 0.64 0.57 0.58 0.56 0.55 0.68 0.81 0.86 0.90 0.96 1.14 1.44 1.63 1.67 1.63 1.54 1.52 1.63 1.84 2.01 2.23 2.34 2.31 2.17 2.05 1.89 1.77 1.70 1.53 1.29 1.16 1.19 1.26 1.32 1.26 1.15 1.09
0.92 0.82 0.74 0.68 0.59 0.55 0.49 0.45 0.51 0.53 0.58 0.68 0.78 0.84 0.86 0.92 0.96 1.07 1.23 1.34 1.32 1.26 1.29 1.35 1.41 1.58 1.86 2.06 2.12 2.14 2.16 2.12 2.06 1.90 1.71 1.54 1.37 1.26 1.32 1.32 1.27 1.31 1.22
1.06 0.96 0.85 0.74 0.62 0.57 0.50 0.45 0.44 0.46 0.53 0.60 0.65 0.73 0.81 0.88 0.89 0.91 0.94 1.00 1.00 1.03 1.09 1.16 1.20 1.23 1.43 1.61 1.74 1.95 2.17 2.18 2.15 2.07 1.86 1.65 1.49 1.37 1.40 1.41 1.41 1.39 1.32
1.08 1.07 0.93 0.74 0.61 0.55 0.50 0.43 0.41 0.41 0.43 0.49 0.56 0.60 0.67 0.76 0.85 0.87 0.75 0.71 0.77 0.86 0.91 0.90 0.92 0.99 1.11 1.20 1.28 1.62 1.96 2.13 2.10 2.04 1.91 1.76 1.54 1.43 1.28 1.25 1.39 1.57 1.57
0.99 0.97 0.75 0.58 0.47 0.42 0.41 0.40 0.35 0.35 0.40 0.45 0.46 0.49 0.61 0.66 0.79 0.76 0.59 0.58 0.61 0.71 0.81 0.80 0.71 0.71 0.77 0.83 0.90 1.08 1.35 1.59 1.84 1.99 1.92 1.73 1.55 1.43 1.35 1.35 1.37 1.44 1.51
0.64 0.60 0.51 0.40 0.38 0.41 0.43 0.37 0.35 0.34 0.36 0.39 0.40 0.42 0.48 0.62 0.65 0.51 0.48 0.51 0.58 0.63 0.69 0.76 0.69 0.60 0.67 0.72 0.81 0.89 0.91 0.98 1.24 1.57 1.70 1.66 1.73 1.58 1.51 1.41 1.35 1.39 1.41
0.40 0.40 0.34 0.31 0.32 0.34 0.36 0.34 0.40 0.44 0.42 0.43 0.46 0.47 0.48 0.53 0.51 0.40 0.43 0.45 0.50 0.56 0.64 0.74 0.79 0.72 0.71 0.82 0.82 0.85 0.82 0.77 0.96 0.98 1.15 1.44 1.60 1.66 1.61 1.66 1.77 1.69 1.53
0.12 0.13 0.12 0.12 0.13 0.15 0.16 0.22 0.33 0.40 0.42 0.45 0.49 0.50 0.47 0.45 0.45 0.37 0.38 0.46 0.51 0.55 0.57 0.63 0.71 0.69 0.82 0.90 0.89 1.00 0.99 0.88 1.00 1.05 1.08 1.12 1.22 1.34 1.47 1.53 1.61 1.65 1.60
0.01 0.01 0.01 0.02 0.02 0.04 0.06 0.09 0.16 0.20 0.25 0.33 0.35 0.39 0.43 0.43 0.52 0.40 0.41 0.46 0.55 0.64 0.66 0.64 0.77 0.77 0.82 0.81 0.79 1.01 1.03 0.93 0.84 0.89 0.90 0.87 0.82 0.91 1.09 1.25 1.45 1.52 1.48
0.00 0.00 0.00 0.00 0.00 0.01 0.02 0.04 0.07 0.09 0.13 0.17 0.22 0.28 0.36 0.42 0.52 0.50 0.54 0.56 0.62 0.74 0.74 0.66 0.60 0.69 0.59 0.64 0.69 0.73 0.94 0.94 0.84 0.89 0.90 0.84 0.77 0.76 0.83 0.95 1.17 1.35 1.39
0.00 0.00 0.00 0.00 0.00 0.01 0.01 0.02 0.02 0.04 0.07 0.10 0.12 0.17 0.24 0.30 0.38 0.44 0.46 0.51 0.59 0.69 0.74 0.62 0.59 0.65 0.50 0.48 0.51 0.61 0.74 0.86 0.84 0.88 0.88 0.86 0.77 0.68 0.70 0.77 0.86 0.93 0.97
0.00 0.00 0.01 0.01 0.01 0.01 0.02 0.02 0.02 0.04 0.06 0.08 0.11 0.18 0.24 0.31 0.34 0.31 0.30 0.33 0.41 0.53 0.55 0.57 0.56 0.52 0.48 0.44 0.45 0.51 0.58 0.68 0.83 0.85 0.78 0.76 0.69 0.64 0.61 0.63 0.70 0.76 0.78
0.00 0.00 0.00 0.01 0.01 0.01 0.02 0.03 0.04 0.05 0.07 0.10 0.16 0.22 0.26 0.30 0.33 0.32 0.34 0.37 0.39 0.42 0.42 0.41 0.43 0.45 0.49 0.47 0.44 0.47 0.55 0.65 0.70 0.68 0.63 0.61 0.63 0.64 0.66 0.65 0.67 0.71 0.75
0.00 0.00 0.00 0.01 0.01 0.01 0.01 0.01 0.03 0.04 0.06 0.12 0.19 0.25 0.25 0.25 0.21 0.23 0.34 0.45 0.52 0.58 0.63 0.57 0.57 0.57 0.53 0.48 0.45 0.45 0.49 0.54 0.54 0.52 0.50 0.47 0.46 0.50 0.55 0.58 0.60 0.60 0.62
0.00 0.00 0.00 0.01 0.01 0.02 0.02 0.01 0.01 0.03 0.06 0.08 0.09 0.12 0.13 0.13 0.13 0.17 0.24 0.35 0.44 0.56 0.72 0.75 0.78 0.79 0.73 0.62 0.52 0.44 0.40 0.41 0.43 0.45 0.46 0.45 0.42 0.43 0.48 0.49 0.50 0.48 0.48
0.00 0.00 0.00 0.01 0.01 0.01 0.02 0.04 0.06 0.05 0.03 0.03 0.03 0.04 0.11 0.19 0.23 0.28 0.31 0.35 0.38 0.52 0.72 0.78 0.78 0.75 0.69 0.63 0.58 0.49 0.41 0.37 0.38 0.38 0.37 0.40 0.40 0.40 0.44 0.44 0.42 0.40 0.39
0.00 0.00 0.01 0.03 0.05 0.06 0.07 0.10 0.15 0.19 0.17 0.09 0.04 0.04 0.07 0.15 0.19 0.23 0.31 0.44 0.46 0.53 0.63 0.64 0.63 0.51 0.43 0.41 0.38 0.35 0.31 0.29 0.29 0.29 0.27 0.29 0.32 0.32 0.34 0.36 0.38 0.38 0.37
0.00 0.01 0.03 0.08 0.10 0.09 0.10 0.14 0.16 0.13 0.11 0.10 0.08 0.06 0.06 0.09 0.12 0.14 0.24 0.43 0.44 0.37 0.34 0.31 0.30 0.27 0.24 0.24 0.24 0.24 0.23 0.21 0.20 0.19 0.18 0.18 0.21 0.23 0.25 0.29 0.32 0.34 0.34
0.01 0.01 0.03 0.08 0.11 0.09 0.09 0.10 0.10 0.08 0.06 0.08 0.10 0.11 0.12 0.13 0.15 0.17 0.20 0.24 0.23 0.19 0.17 0.18 0.19 0.19 0.19 0.20 0.21 0.21 0.21 0.20 0.18 0.18 0.16 0.16 0.17 0.19 0.21 0.26 0.29 0.30 0.29
0.01 0.02 0.03 0.05 0.08 0.07 0.07 0.07 0.07 0.08 0.08 0.09 0.10 0.10 0.14 0.19 0.20 0.19 0.20 0.21 0.20 0.19 0.19 0.20 0.19 0.18 0.20 0.22 0.24 0.25 0.24 0.22 0.20 0.19 0.18 0.18 0.19 0.19 0.22 0.27 0.30 0.31 0.30
0.02 0.03 0.05 0.07 0.07 0.06 0.07 0.09 0.12 0.11 0.10 0.12 0.12 0.13 0.16 0.20 0.21 0.20 0.19 0.20 0.20 0.20 0.23 0.26 0.26 0.24 0.24 0.26 0.29 0.28 0.27 0.26 0.24 0.22 0.20 0.20 0.20 0.20 0.21 0.25 0.27 0.30 0.31
0.03 0.04 0.05 0.08 0.08 0.07 0.08 0.11 0.13 0.13 0.12 0.13 0.15 0.16 0.18 0.21 0.22 0.23 0.23 0.23 0.23 0.24 0.24 0.26 0.29 0.28 0.26 0.27 0.31 0.33 0.31 0.29 0.28 0.27 0.26 0.25 0.24 0.23 0.23 0.22 0.22 0.24 0.26
0.05 0.06 0.07 0.09 0.10 0.09 0.11 0.12 0.13 0.13 0.14 0.15 0.16 0.18 0.19 0.21 0.20 0.20 0.22 0.24 0.25 0.27 0.26 0.26 0.27 0.26 0.26 0.28 0.30 0.33 0.35 0.33 0.29 0.27 0.26 0.28 0.29 0.29 0.29 0.28 0.30 0.30 0.30
0.07 0.07 0.08 0.09 0.10 0.09 0.10 0.11 0.14 0.14 0.15 0.16 0.17 0.17 0.19 0.20 0.20 0.20 0.21 0.22 0.24 0.26 0.25 0.27 0.29 0.28 0.27 0.27 0.29 0.32 0.39 0.39 0.35 0.32 0.28 0.27 0.29 0.32 0.35 0.39 0.42 0.43 0.42
0.07 0.07 0.08 0.10 0.11 0.10 0.11 0.12 0.14 0.15 0.16 0.17 0.17 0.18 0.20 0.22 0.21 0.21 0.21 0.21 0.22 0.23 0.22 0.24 0.27 0.26 0.26 0.28 0.30 0.36 0.41 0.38 0.35 0.34 0.30 0.27 0.28 0.29 0.30 0.31 0.32 0.35 0.38